Weather History for Molokai, HI

Change the Weather History Date:

Wednesday, November 9, 2011

  Actual Average Record
Temperature  
Mean Temperature 75 °F -  
Max Temperature 80 °F 83 °F 89 °F (1990)
Min Temperature 70 °F 69 °F 62 °F (1987)
Cooling Degree Days 10    
Growing Degree Days 25 (Base 50)    
Moisture  
Dew Point 64 °F    
Average Humidity 69    
Maximum Humidity 84    
Minimum Humidity 54    
Precipitation  
Precipitation 0.01 in - - ()
Sea Level Pressure  
Sea Level Pressure 30.09 in    
Wind  
Wind Speed 14 mph (NE)    
Max Wind Speed 22 mph    
Max Gust Speed 39 mph    
Visibility 10 miles    
Events      
Averages and records for this station are not official NWS values.
T = Trace of Precipitation, MM = Missing Value Source: NWS Daily Summary

Daily Weather History Graph

Daily Weather History Graph

Search for Another Location

Airport:

Trip Planner

Search our weather history database for the weather conditions in past years. The results will help you decide how hot, cold, wet, or windy it might be!

Date:

Astronomy

Nov. 09, 2011 Rise Set
Actual Time 6:35 AM HST 5:48 PM HST
Civil Twilight 6:12 AM HST 6:11 PM HST
Nautical Twilight 5:45 AM HST 6:38 PM HST
Astronomical Twilight 5:19 AM HST 7:04 PM HST
Moon 5:09 PM HST (11/9) 5:41 AM HST (11/9)
Length of Visible Light 11h 59m
Length of Day
11h 13m
Waxing Gibbous, 99% of the Moon is Illuminated
Nov 9
Waxing Gibbous
Nov 10
Full
Nov 18
Last Quarter
Nov 24
New
Dec 1
First Quarter

Hourly Weather History & Observations

Time (HST) Temp. Heat Index Dew Point Humidity Pressure Visibility Wind Dir Wind Speed Gust Speed Precip Events Conditions
12:54 AM 73.0 °F - 64.9 °F 76% 30.09 in 10.0 mi NE 9.2 mph 20.7 mph N/A   Clear
1:54 AM 73.0 °F - 64.0 °F 73% 30.08 in 10.0 mi ENE 12.7 mph 21.9 mph N/A   Clear
2:54 AM 73.0 °F - 64.9 °F 76% 30.08 in 10.0 mi ENE 11.5 mph - N/A   Partly Cloudy
3:54 AM 70.0 °F - 64.9 °F 84% 30.07 in 5.0 mi NE 18.4 mph 39.1 mph N/A   Haze
4:54 AM 71.1 °F - 64.9 °F 81% 30.09 in 6.0 mi NE 10.4 mph 25.3 mph 0.01 in   Haze
5:54 AM 72.0 °F - 64.9 °F 78% 30.09 in 10.0 mi NE 15.0 mph 26.5 mph N/A   Mostly Cloudy
6:54 AM 72.0 °F - 64.0 °F 76% 30.11 in 10.0 mi NE 16.1 mph 26.5 mph N/A   Partly Cloudy
7:54 AM 75.0 °F - 63.0 °F 66% 30.12 in 10.0 mi NE 17.3 mph 28.8 mph N/A   Scattered Clouds
8:54 AM 77.0 °F - 63.0 °F 62% 30.13 in 10.0 mi NE 11.5 mph 17.3 mph N/A   Scattered Clouds
9:54 AM 78.1 °F - 64.0 °F 62% 30.13 in 10.0 mi NE 15.0 mph 28.8 mph N/A   Scattered Clouds
10:07 AM 75.2 °F - 64.4 °F 69% 30.13 in 10.0 mi NE 18.4 mph 27.6 mph N/A   Mostly Cloudy
10:54 AM 80.1 °F 81.5 °F 63.0 °F 56% 30.12 in 10.0 mi NE 12.7 mph 32.2 mph N/A   Mostly Cloudy
11:08 AM 80.6 °F 82.3 °F 64.4 °F 58% 30.11 in 10.0 mi NE 15.0 mph 28.8 mph N/A   Scattered Clouds
11:17 AM 80.6 °F 81.8 °F 62.6 °F 54% 30.10 in 8.0 mi NE 21.9 mph 33.4 mph N/A   Mostly Cloudy
11:54 AM 79.0 °F - 64.0 °F 60% 30.10 in 10.0 mi NNE 12.7 mph 25.3 mph N/A   Mostly Cloudy
12:54 PM 77.0 °F - 64.0 °F 64% 30.08 in 10.0 mi NE 13.8 mph 25.3 mph N/A   Overcast
1:54 PM 77.0 °F - 62.1 °F 60% 30.06 in 10.0 mi ENE 15.0 mph 27.6 mph N/A   Scattered Clouds
2:54 PM 77.0 °F - 64.0 °F 64% 30.04 in 10.0 mi NNE 15.0 mph 23.0 mph N/A   Scattered Clouds
3:54 PM 78.1 °F - 63.0 °F 60% 30.04 in 10.0 mi NE 15.0 mph 33.4 mph N/A   Scattered Clouds
4:54 PM 75.9 °F - 64.0 °F 67% 30.05 in 10.0 mi NE 11.5 mph 28.8 mph N/A   Partly Cloudy
5:54 PM 73.9 °F - 64.0 °F 71% 30.06 in 10.0 mi NE 12.7 mph 25.3 mph N/A   Scattered Clouds
6:54 PM 73.9 °F - 64.9 °F 73% 30.09 in 10.0 mi NE 13.8 mph 25.3 mph N/A   Scattered Clouds
7:54 PM 73.0 °F - 64.0 °F 73% 30.11 in 10.0 mi NE 15.0 mph 27.6 mph N/A   Clear
8:54 PM 73.0 °F - 64.0 °F 73% 30.11 in 10.0 mi NE 13.8 mph 26.5 mph N/A   Mostly Cloudy
9:20 PM 73.4 °F - 64.4 °F 73% 30.11 in 10.0 mi ENE 15.0 mph 20.7 mph N/A   Mostly Cloudy
9:54 PM 73.0 °F - 66.0 °F 79% 30.11 in 10.0 mi NE 12.7 mph 27.6 mph N/A   Mostly Cloudy
10:10 PM 73.4 °F - 64.4 °F 73% 30.10 in 10.0 mi NE 17.3 mph 24.2 mph N/A   Mostly Cloudy
10:54 PM 73.0 °F - 63.0 °F 71% 30.09 in 10.0 mi NE 13.8 mph 25.3 mph N/A   Partly Cloudy
11:54 PM 73.0 °F - 64.0 °F 73% 30.09 in 10.0 mi NE 12.7 mph 23.0 mph N/A   Scattered Clouds